Year,Month,Day,Hour,Minute,Value (Times are PST for windspeed in km/hr)
2020,09,08,00,00,7.60
2020,09,08,00,01,8.40
2020,09,08,00,02,9.30
2020,09,08,00,03,11.20
2020,09,08,00,04,8.60
2020,09,08,00,05,9.20
2020,09,08,00,06,8.60
2020,09,08,00,07,11.90
2020,09,08,00,08,8.90
2020,09,08,00,09,7.80
2020,09,08,00,10,10.00
2020,09,08,00,11,7.20
2020,09,08,00,12,4.30
2020,09,08,00,13,7.80
2020,09,08,00,14,9.30
2020,09,08,00,15,8.50
2020,09,08,00,16,8.00
2020,09,08,00,17,6.00
2020,09,08,00,18,7.20
2020,09,08,00,19,5.30
2020,09,08,00,20,4.00
2020,09,08,00,21,9.30
2020,09,08,00,22,7.90
2020,09,08,00,23,5.00
2020,09,08,00,24,6.20
2020,09,08,00,25,10.20
2020,09,08,00,26,8.90
2020,09,08,00,27,8.20
2020,09,08,00,28,5.70
2020,09,08,00,29,7.10
2020,09,08,00,30,6.80
2020,09,08,00,31,10.50
2020,09,08,00,32,3.80
2020,09,08,00,33,11.70
2020,09,08,00,34,8.00
2020,09,08,00,35,5.80
2020,09,08,00,36,6.40
2020,09,08,00,37,7.10
2020,09,08,00,38,7.00
2020,09,08,00,39,5.50
2020,09,08,00,40,6.80
2020,09,08,00,41,2.70
2020,09,08,00,42,8.30
2020,09,08,00,43,3.90
2020,09,08,00,44,4.90
2020,09,08,00,45,11.30
2020,09,08,00,46,11.60
2020,09,08,00,47,8.90
2020,09,08,00,48,4.50
2020,09,08,00,49,11.10
2020,09,08,00,50,3.70
2020,09,08,00,51,3.70
2020,09,08,00,52,3.20
2020,09,08,00,53,3.20
2020,09,08,00,54,2.40
2020,09,08,00,55,1.10
2020,09,08,00,56,0.20
2020,09,08,00,57,0.30
2020,09,08,00,58,4.80
2020,09,08,00,59,5.60
2020,09,08,01,00,8.00
2020,09,08,01,01,13.60
2020,09,08,01,02,11.10
2020,09,08,01,03,9.50
2020,09,08,01,04,6.40
2020,09,08,01,05,7.20
2020,09,08,01,06,6.40
2020,09,08,01,07,2.50
2020,09,08,01,08,2.40
2020,09,08,01,09,0.70
2020,09,08,01,10,3.00
2020,09,08,01,11,3.00
2020,09,08,01,12,5.80
2020,09,08,01,13,7.00
2020,09,08,01,14,4.30
2020,09,08,01,15,6.30
2020,09,08,01,16,5.20
2020,09,08,01,17,5.80
2020,09,08,01,18,6.80
2020,09,08,01,19,5.90
2020,09,08,01,20,4.10
2020,09,08,01,21,6.80
2020,09,08,01,22,6.10
2020,09,08,01,23,4.70
2020,09,08,01,24,3.90
2020,09,08,01,25,3.30
2020,09,08,01,26,3.40
2020,09,08,01,27,3.60
2020,09,08,01,28,3.20
2020,09,08,01,29,4.80
2020,09,08,01,30,3.90
2020,09,08,01,31,3.80
2020,09,08,01,32,0.70
2020,09,08,01,33,1.90
2020,09,08,01,34,2.50
2020,09,08,01,35,2.60
2020,09,08,01,36,3.60
2020,09,08,01,37,1.20
2020,09,08,01,38,1.10
2020,09,08,01,39,0.90
2020,09,08,01,40,1.70
2020,09,08,01,41,0.50
2020,09,08,01,42,1.50
2020,09,08,01,43,0.40
2020,09,08,01,44,1.00
2020,09,08,01,45,1.60
2020,09,08,01,46,0.80
2020,09,08,01,47,0.40
2020,09,08,01,48,0.00
2020,09,08,01,49,0.00
2020,09,08,01,50,0.20
2020,09,08,01,51,0.00
2020,09,08,01,52,1.40
2020,09,08,01,53,0.70
2020,09,08,01,54,1.40
2020,09,08,01,55,0.00
2020,09,08,01,56,0.70
2020,09,08,01,57,0.00
2020,09,08,01,58,0.30
2020,09,08,01,59,3.40
2020,09,08,02,00,0.30
2020,09,08,02,01,0.00
2020,09,08,02,02,0.00
2020,09,08,02,03,0.30
2020,09,08,02,04,0.30
2020,09,08,02,05,0.10
2020,09,08,02,06,0.00
2020,09,08,02,07,0.00
2020,09,08,02,08,0.10
2020,09,08,02,09,0.30
2020,09,08,02,10,0.00
2020,09,08,02,11,0.00
2020,09,08,02,12,0.00
2020,09,08,02,13,0.30
2020,09,08,02,14,0.00
2020,09,08,02,15,1.60
2020,09,08,02,16,2.40
2020,09,08,02,17,0.70
2020,09,08,02,18,1.90
2020,09,08,02,19,4.00
2020,09,08,02,20,0.90
2020,09,08,02,21,1.50
2020,09,08,02,22,0.50
2020,09,08,02,23,3.20
2020,09,08,02,24,4.50
2020,09,08,02,25,4.70
2020,09,08,02,26,1.40
2020,09,08,02,27,3.10
2020,09,08,02,28,1.90
2020,09,08,02,29,0.10
2020,09,08,02,30,1.50
2020,09,08,02,31,1.10
2020,09,08,02,32,5.60
2020,09,08,02,33,4.80
2020,09,08,02,34,5.90
2020,09,08,02,35,1.60
2020,09,08,02,36,3.30
2020,09,08,02,37,1.40
2020,09,08,02,38,0.10
2020,09,08,02,39,1.90
2020,09,08,02,40,7.30
2020,09,08,02,41,5.20
2020,09,08,02,42,4.50
2020,09,08,02,43,3.80
2020,09,08,02,44,0.50
2020,09,08,02,45,3.40
2020,09,08,02,46,1.10
2020,09,08,02,47,0.00
2020,09,08,02,48,1.60
2020,09,08,02,49,6.00
2020,09,08,02,50,3.50
2020,09,08,02,51,3.40
2020,09,08,02,52,0.60
2020,09,08,02,53,1.30
2020,09,08,02,54,4.70
2020,09,08,02,55,3.80
2020,09,08,02,56,5.60
2020,09,08,02,57,5.00
2020,09,08,02,58,2.10
2020,09,08,02,59,0.60
2020,09,08,03,00,2.20
2020,09,08,03,01,3.40
2020,09,08,03,02,0.90
2020,09,08,03,03,0.00
2020,09,08,03,04,1.00
2020,09,08,03,05,0.50
2020,09,08,03,06,1.50
2020,09,08,03,07,4.50
2020,09,08,03,08,4.10
2020,09,08,03,09,3.10
2020,09,08,03,10,1.90
2020,09,08,03,11,0.80
2020,09,08,03,12,1.10
2020,09,08,03,13,0.10
2020,09,08,03,14,0.20
2020,09,08,03,15,2.90
2020,09,08,03,16,4.30
2020,09,08,03,17,5.30
2020,09,08,03,18,2.90
2020,09,08,03,19,4.50
2020,09,08,03,20,5.20
2020,09,08,03,21,4.90
2020,09,08,03,22,1.50
2020,09,08,03,23,0.60
2020,09,08,03,24,0.10
2020,09,08,03,25,1.50
2020,09,08,03,26,3.20
2020,09,08,03,27,2.50
2020,09,08,03,28,1.80
2020,09,08,03,29,0.10
2020,09,08,03,30,2.20
2020,09,08,03,31,3.80
2020,09,08,03,32,4.50
2020,09,08,03,33,4.40
2020,09,08,03,34,3.00
2020,09,08,03,35,0.50
2020,09,08,03,36,0.50
2020,09,08,03,37,0.30
2020,09,08,03,38,3.90
2020,09,08,03,39,4.30
2020,09,08,03,40,4.20
2020,09,08,03,41,5.40
2020,09,08,03,42,5.00
2020,09,08,03,43,4.10
2020,09,08,03,44,3.70
2020,09,08,03,45,3.30
2020,09,08,03,46,4.10
2020,09,08,03,47,4.10
2020,09,08,03,48,5.70
2020,09,08,03,49,2.60
2020,09,08,03,50,5.70
2020,09,08,03,51,1.50
2020,09,08,03,52,3.40
2020,09,08,03,53,5.40
2020,09,08,03,54,5.40
2020,09,08,03,55,5.20
2020,09,08,03,56,5.00
2020,09,08,03,57,4.00
2020,09,08,03,58,1.60
2020,09,08,03,59,7.30
2020,09,08,04,00,5.70
2020,09,08,04,01,3.10
2020,09,08,04,02,2.60
2020,09,08,04,03,3.50
2020,09,08,04,04,4.00
2020,09,08,04,05,3.20
2020,09,08,04,06,1.00
2020,09,08,04,07,1.20
2020,09,08,04,08,1.20
2020,09,08,04,09,1.90
2020,09,08,04,10,4.80
2020,09,08,04,11,3.80
2020,09,08,04,12,3.60
2020,09,08,04,13,2.00
2020,09,08,04,14,1.60
2020,09,08,04,15,0.10
2020,09,08,04,16,1.00
2020,09,08,04,17,5.60
2020,09,08,04,18,5.40
2020,09,08,04,19,3.60
2020,09,08,04,20,2.00
2020,09,08,04,21,3.10
2020,09,08,04,22,3.00
2020,09,08,04,23,2.50
2020,09,08,04,24,2.40
2020,09,08,04,25,3.00
2020,09,08,04,26,2.60
2020,09,08,04,27,2.50
2020,09,08,04,28,2.60
2020,09,08,04,29,3.50
2020,09,08,04,30,2.50
2020,09,08,04,31,2.00
2020,09,08,04,32,3.80
2020,09,08,04,33,4.10
2020,09,08,04,34,2.60
2020,09,08,04,35,2.30
2020,09,08,04,36,3.10
2020,09,08,04,37,1.10
2020,09,08,04,38,4.70
2020,09,08,04,39,2.70
2020,09,08,04,40,1.80
2020,09,08,04,41,0.60
2020,09,08,04,42,1.50
2020,09,08,04,43,4.70
2020,09,08,04,44,2.00
2020,09,08,04,45,1.90
2020,09,08,04,46,3.30
2020,09,08,04,47,1.60
2020,09,08,04,48,1.50
2020,09,08,04,49,2.20
2020,09,08,04,50,3.30
2020,09,08,04,51,3.30
2020,09,08,04,52,3.00
2020,09,08,04,53,4.90
2020,09,08,04,54,5.50
2020,09,08,04,55,6.20
2020,09,08,04,56,5.20
2020,09,08,04,57,5.90
2020,09,08,04,58,5.30
2020,09,08,04,59,2.80
2020,09,08,05,00,1.50
2020,09,08,05,01,0.00
2020,09,08,05,02,2.40
2020,09,08,05,03,0.60
2020,09,08,05,04,0.30
2020,09,08,05,05,0.40
2020,09,08,05,06,0.40
2020,09,08,05,07,0.30
2020,09,08,05,08,1.70
2020,09,08,05,09,2.00
2020,09,08,05,10,1.00
2020,09,08,05,11,2.20
2020,09,08,05,12,1.10
2020,09,08,05,13,3.90
2020,09,08,05,14,5.40
2020,09,08,05,15,5.50
2020,09,08,05,16,3.70
2020,09,08,05,17,4.70
2020,09,08,05,18,3.70
2020,09,08,05,19,3.50
2020,09,08,05,20,3.40
2020,09,08,05,21,4.10
2020,09,08,05,22,3.30
2020,09,08,05,23,3.20
2020,09,08,05,24,2.20
2020,09,08,05,25,3.00
2020,09,08,05,26,2.30
2020,09,08,05,27,1.30
2020,09,08,05,28,1.20
2020,09,08,05,29,3.10
2020,09,08,05,30,2.20
2020,09,08,05,31,2.70
2020,09,08,05,32,4.40
2020,09,08,05,33,3.50
2020,09,08,05,34,4.50
2020,09,08,05,35,2.20
2020,09,08,05,36,3.50
2020,09,08,05,37,0.20
2020,09,08,05,38,0.30
2020,09,08,05,39,2.10
2020,09,08,05,40,2.70
2020,09,08,05,41,4.30
2020,09,08,05,42,4.10
2020,09,08,05,43,3.00
2020,09,08,05,44,2.80
2020,09,08,05,45,3.80
2020,09,08,05,46,3.30
2020,09,08,05,47,3.60
2020,09,08,05,48,5.00
2020,09,08,05,49,2.00
2020,09,08,05,50,4.70
2020,09,08,05,51,2.20
2020,09,08,05,52,1.70
2020,09,08,05,53,0.20
2020,09,08,05,54,0.40
2020,09,08,05,55,0.60
2020,09,08,05,56,0.00
2020,09,08,05,57,0.90
2020,09,08,05,58,3.10
2020,09,08,05,59,0.80
2020,09,08,06,00,1.80
2020,09,08,06,01,1.70
2020,09,08,06,02,4.10
2020,09,08,06,03,4.60
2020,09,08,06,04,1.80
2020,09,08,06,05,1.30
2020,09,08,06,06,3.20
2020,09,08,06,07,1.70
2020,09,08,06,08,0.10
2020,09,08,06,09,2.60
2020,09,08,06,10,1.50
2020,09,08,06,11,4.00
2020,09,08,06,12,2.50
2020,09,08,06,13,0.80
2020,09,08,06,14,0.80
2020,09,08,06,15,0.20
2020,09,08,06,16,0.00
2020,09,08,06,17,0.10
2020,09,08,06,18,0.30
2020,09,08,06,19,0.50
2020,09,08,06,20,1.10
2020,09,08,06,21,0.80
2020,09,08,06,22,0.20
2020,09,08,06,23,0.40
2020,09,08,06,24,0.20
2020,09,08,06,25,1.90
2020,09,08,06,26,1.80
2020,09,08,06,27,0.50
2020,09,08,06,28,0.20
2020,09,08,06,29,0.00
2020,09,08,06,30,0.20
2020,09,08,06,31,1.90
2020,09,08,06,32,0.20
2020,09,08,06,33,0.70
2020,09,08,06,34,0.40
2020,09,08,06,35,1.20
2020,09,08,06,36,0.10
2020,09,08,06,37,0.00
2020,09,08,06,38,0.00
2020,09,08,06,39,0.90
2020,09,08,06,40,0.50
2020,09,08,06,41,0.30
2020,09,08,06,42,0.00
2020,09,08,06,43,0.00
2020,09,08,06,44,0.00
2020,09,08,06,45,0.00
2020,09,08,06,46,0.20
2020,09,08,06,47,4.60
2020,09,08,06,48,3.20
2020,09,08,06,49,2.50
2020,09,08,06,50,0.50
2020,09,08,06,51,0.00
2020,09,08,06,52,0.60
2020,09,08,06,53,3.80
2020,09,08,06,54,0.30
2020,09,08,06,55,1.60
2020,09,08,06,56,2.20
2020,09,08,06,57,3.60
2020,09,08,06,58,0.70
2020,09,08,06,59,0.20
2020,09,08,07,00,0.00
2020,09,08,07,01,0.30
2020,09,08,07,02,0.30
2020,09,08,07,03,0.00
2020,09,08,07,04,0.00
2020,09,08,07,05,0.10
2020,09,08,07,06,1.00
2020,09,08,07,07,0.10
2020,09,08,07,08,0.00
2020,09,08,07,09,0.00
2020,09,08,07,10,0.00
2020,09,08,07,11,0.00
2020,09,08,07,12,0.00
2020,09,08,07,13,0.10
2020,09,08,07,14,0.30
2020,09,08,07,15,0.10
2020,09,08,07,16,0.50
2020,09,08,07,17,0.00
2020,09,08,07,18,0.00
2020,09,08,07,19,0.10
2020,09,08,07,20,0.20
2020,09,08,07,21,0.20
2020,09,08,07,22,0.10
2020,09,08,07,23,0.00
2020,09,08,07,24,0.00
2020,09,08,07,25,0.90
2020,09,08,07,26,0.00
2020,09,08,07,27,0.00
2020,09,08,07,28,0.30
2020,09,08,07,29,0.30
2020,09,08,07,30,0.30
2020,09,08,07,31,1.70
2020,09,08,07,32,0.80
2020,09,08,07,33,0.00
2020,09,08,07,34,0.00
2020,09,08,07,35,0.00
2020,09,08,07,36,0.00
2020,09,08,07,37,0.00
2020,09,08,07,38,0.00
2020,09,08,07,39,0.00
2020,09,08,07,40,0.00
2020,09,08,07,41,0.00
2020,09,08,07,42,1.20
2020,09,08,07,43,0.20
2020,09,08,07,44,0.00
2020,09,08,07,45,0.30
2020,09,08,07,46,0.30
2020,09,08,07,47,0.00
2020,09,08,07,48,0.40
2020,09,08,07,49,0.60
2020,09,08,07,50,3.00
2020,09,08,07,51,0.70
2020,09,08,07,52,0.20
2020,09,08,07,53,0.00
2020,09,08,07,54,0.00
2020,09,08,07,55,0.00
2020,09,08,07,56,0.00
2020,09,08,07,57,0.00
2020,09,08,07,58,0.00
2020,09,08,07,59,0.00
2020,09,08,08,00,0.50
2020,09,08,08,01,1.00
2020,09,08,08,02,0.90
2020,09,08,08,03,0.00
2020,09,08,08,04,0.00
2020,09,08,08,05,0.80
2020,09,08,08,06,1.80
2020,09,08,08,07,1.80
2020,09,08,08,08,0.90
2020,09,08,08,09,0.40
2020,09,08,08,10,0.00
2020,09,08,08,11,0.40
2020,09,08,08,12,0.60
2020,09,08,08,13,0.90
2020,09,08,08,14,0.00
2020,09,08,08,15,0.00
2020,09,08,08,16,0.00
2020,09,08,08,17,0.00
2020,09,08,08,18,0.00
2020,09,08,08,19,0.00
2020,09,08,08,20,1.60
2020,09,08,08,21,5.00
2020,09,08,08,22,1.90
2020,09,08,08,23,0.00
2020,09,08,08,24,0.80
2020,09,08,08,25,1.70
2020,09,08,08,26,4.40
2020,09,08,08,27,3.80
2020,09,08,08,28,3.30
2020,09,08,08,29,0.60
2020,09,08,08,30,0.60
2020,09,08,08,31,0.00
2020,09,08,08,32,1.30
2020,09,08,08,33,0.30
2020,09,08,08,34,0.60
2020,09,08,08,35,3.50
2020,09,08,08,36,3.10
2020,09,08,08,37,1.70
2020,09,08,08,38,1.20
2020,09,08,08,39,0.70
2020,09,08,08,40,0.10
2020,09,08,08,41,0.00
2020,09,08,08,42,4.60
2020,09,08,08,43,3.30
2020,09,08,08,44,4.10
2020,09,08,08,45,4.60
2020,09,08,08,46,4.70
2020,09,08,08,47,3.10
2020,09,08,08,48,0.40
2020,09,08,08,49,2.10
2020,09,08,08,50,2.00
2020,09,08,08,51,4.60
2020,09,08,08,52,8.60
2020,09,08,08,53,3.80
2020,09,08,08,54,3.80
2020,09,08,08,55,3.80
2020,09,08,08,56,0.30
2020,09,08,08,57,1.10
2020,09,08,08,58,3.50
2020,09,08,08,59,1.10
2020,09,08,09,00,2.60
2020,09,08,09,01,4.70
2020,09,08,09,02,9.70
2020,09,08,09,03,5.90
2020,09,08,09,04,2.40
2020,09,08,09,05,2.70
2020,09,08,09,06,1.20
2020,09,08,09,07,3.10
2020,09,08,09,08,6.20
2020,09,08,09,09,2.10
2020,09,08,09,10,3.90
2020,09,08,09,11,2.90
2020,09,08,09,12,5.90
2020,09,08,09,13,3.80
2020,09,08,09,14,1.20
2020,09,08,09,15,0.20
2020,09,08,09,16,4.50
2020,09,08,09,17,5.90
2020,09,08,09,18,4.80
2020,09,08,09,19,10.50
2020,09,08,09,20,5.00
2020,09,08,09,21,5.80
2020,09,08,09,22,5.90
2020,09,08,09,23,3.00
2020,09,08,09,24,2.70
2020,09,08,09,25,3.70
2020,09,08,09,26,3.00
2020,09,08,09,27,3.30
2020,09,08,09,28,4.20
2020,09,08,09,29,0.40
2020,09,08,09,30,1.00
2020,09,08,09,31,1.00
2020,09,08,09,32,2.30
2020,09,08,09,33,3.70
2020,09,08,09,34,2.70
2020,09,08,09,35,1.40
2020,09,08,09,36,0.30
2020,09,08,09,37,0.70
2020,09,08,09,38,0.30
2020,09,08,09,39,5.00
2020,09,08,09,40,6.00
2020,09,08,09,41,1.80
2020,09,08,09,42,0.10
2020,09,08,09,43,0.00
2020,09,08,09,44,0.10
2020,09,08,09,45,0.40
2020,09,08,09,46,3.10
2020,09,08,09,47,7.00
2020,09,08,09,48,5.90
2020,09,08,09,49,8.40
2020,09,08,09,50,2.70
2020,09,08,09,51,0.50
2020,09,08,09,52,0.50
2020,09,08,09,53,0.10
2020,09,08,09,54,0.00
2020,09,08,09,55,0.00
2020,09,08,09,56,0.10
2020,09,08,09,57,1.10
2020,09,08,09,58,1.70
2020,09,08,09,59,0.90
2020,09,08,10,00,0.20
2020,09,08,10,01,3.00
2020,09,08,10,02,0.20
2020,09,08,10,03,1.50
2020,09,08,10,04,2.50
2020,09,08,10,05,2.70
2020,09,08,10,06,1.40
2020,09,08,10,07,3.70
2020,09,08,10,08,7.70
2020,09,08,10,09,9.10
2020,09,08,10,10,6.40
2020,09,08,10,11,1.20
2020,09,08,10,12,0.30
2020,09,08,10,13,0.80
2020,09,08,10,14,0.30
2020,09,08,10,15,0.20
2020,09,08,10,16,1.80
2020,09,08,10,17,4.20
2020,09,08,10,18,1.80
2020,09,08,10,19,6.00
2020,09,08,10,20,0.80
2020,09,08,10,21,0.00
2020,09,08,10,22,0.20
2020,09,08,10,23,0.00
2020,09,08,10,24,0.30
2020,09,08,10,25,2.10
2020,09,08,10,26,0.60
2020,09,08,10,27,0.80
2020,09,08,10,28,0.20
2020,09,08,10,29,0.00
2020,09,08,10,30,0.00
2020,09,08,10,31,1.20
2020,09,08,10,32,2.50
2020,09,08,10,33,0.30
2020,09,08,10,34,1.40
2020,09,08,10,35,5.30
2020,09,08,10,36,6.00
2020,09,08,10,37,1.30
2020,09,08,10,38,5.90
2020,09,08,10,39,5.60
2020,09,08,10,40,3.50
2020,09,08,10,41,4.60
2020,09,08,10,42,4.90
2020,09,08,10,43,2.00
2020,09,08,10,44,0.10
2020,09,08,10,45,0.80
2020,09,08,10,46,2.00
2020,09,08,10,47,4.10
2020,09,08,10,48,4.00
2020,09,08,10,49,2.40
2020,09,08,10,50,1.50
2020,09,08,10,51,5.80
2020,09,08,10,52,6.10
2020,09,08,10,53,2.30
2020,09,08,10,54,2.00
2020,09,08,10,55,3.00
2020,09,08,10,56,2.50
2020,09,08,10,57,1.90
2020,09,08,10,58,0.50
2020,09,08,10,59,0.30
2020,09,08,11,00,0.10
2020,09,08,11,01,0.90
2020,09,08,11,02,1.10
2020,09,08,11,03,1.70
2020,09,08,11,04,0.60
2020,09,08,11,05,1.80
2020,09,08,11,06,1.50
2020,09,08,11,07,2.70
2020,09,08,11,08,1.90
2020,09,08,11,09,2.80
2020,09,08,11,10,2.50
2020,09,08,11,11,3.90
2020,09,08,11,12,3.90
2020,09,08,11,13,0.20
2020,09,08,11,14,0.40
2020,09,08,11,15,7.50
2020,09,08,11,16,7.40
2020,09,08,11,17,3.80
2020,09,08,11,18,3.10
2020,09,08,11,19,1.40
2020,09,08,11,20,1.40
2020,09,08,11,21,1.10
2020,09,08,11,22,0.90
2020,09,08,11,23,0.70
2020,09,08,11,24,1.20
2020,09,08,11,25,0.60
2020,09,08,11,26,0.10
2020,09,08,11,27,0.10
2020,09,08,11,28,4.70
2020,09,08,11,29,9.70
2020,09,08,11,30,3.50
2020,09,08,11,31,1.50
2020,09,08,11,32,2.70
2020,09,08,11,33,0.80
2020,09,08,11,34,2.70
2020,09,08,11,35,2.20
2020,09,08,11,36,2.50
2020,09,08,11,37,6.40
2020,09,08,11,38,3.80
2020,09,08,11,39,5.10
2020,09,08,11,40,3.50
2020,09,08,11,41,2.40
2020,09,08,11,42,1.80
2020,09,08,11,43,0.80
2020,09,08,11,44,0.60
2020,09,08,11,45,0.20
2020,09,08,11,46,0.20
2020,09,08,11,47,1.40
2020,09,08,11,48,3.10
2020,09,08,11,49,0.30
2020,09,08,11,50,0.00
2020,09,08,11,51,1.90
2020,09,08,11,52,1.10
2020,09,08,11,53,1.40
2020,09,08,11,54,1.30
2020,09,08,11,55,1.50
2020,09,08,11,56,1.30
2020,09,08,11,57,1.90
2020,09,08,11,58,4.80
2020,09,08,11,59,1.30
2020,09,08,12,00,1.60
2020,09,08,12,01,0.60
2020,09,08,12,02,1.50
2020,09,08,12,03,3.10
2020,09,08,12,04,1.40
2020,09,08,12,05,2.00
2020,09,08,12,06,6.60
2020,09,08,12,07,2.10
2020,09,08,12,08,1.20
2020,09,08,12,09,0.50
2020,09,08,12,10,1.20
2020,09,08,12,11,1.10
2020,09,08,12,12,0.60
2020,09,08,12,13,1.40
2020,09,08,12,14,1.00
2020,09,08,12,15,1.40
2020,09,08,12,16,1.30
2020,09,08,12,17,0.90
2020,09,08,12,18,1.50
2020,09,08,12,19,1.90
2020,09,08,12,20,0.00
2020,09,08,12,21,0.00
2020,09,08,12,22,0.10
2020,09,08,12,23,0.90
2020,09,08,12,24,1.00
2020,09,08,12,25,1.50
2020,09,08,12,26,3.80
2020,09,08,12,27,6.00
2020,09,08,12,28,3.60
2020,09,08,12,29,3.10
2020,09,08,12,30,0.80
2020,09,08,12,31,1.10
2020,09,08,12,32,0.20
2020,09,08,12,33,0.80
2020,09,08,12,34,2.70
2020,09,08,12,35,1.80
2020,09,08,12,36,0.80
2020,09,08,12,37,1.40
2020,09,08,12,38,0.90
2020,09,08,12,39,2.50
2020,09,08,12,40,1.40
2020,09,08,12,41,1.00
2020,09,08,12,42,2.50
2020,09,08,12,43,0.80
2020,09,08,12,44,0.20
2020,09,08,12,45,1.30
2020,09,08,12,46,1.90
2020,09,08,12,47,0.50
2020,09,08,12,48,1.60
2020,09,08,12,49,2.50
2020,09,08,12,50,3.30
2020,09,08,12,51,0.40
2020,09,08,12,52,1.00
2020,09,08,12,53,1.90
2020,09,08,12,54,2.20
2020,09,08,12,55,3.30
2020,09,08,12,56,1.70
2020,09,08,12,57,1.20
2020,09,08,12,58,2.20
2020,09,08,12,59,1.20
2020,09,08,13,00,1.70
2020,09,08,13,01,0.90
2020,09,08,13,02,0.60
2020,09,08,13,03,0.50
2020,09,08,13,04,0.60
2020,09,08,13,05,4.10
2020,09,08,13,06,4.10
2020,09,08,13,07,0.20
2020,09,08,13,08,0.30
2020,09,08,13,09,3.70
2020,09,08,13,10,3.10
2020,09,08,13,11,2.30
2020,09,08,13,12,0.90
2020,09,08,13,13,4.90
2020,09,08,13,14,0.40
2020,09,08,13,15,0.60
2020,09,08,13,16,1.00
2020,09,08,13,17,0.30
2020,09,08,13,18,0.70
2020,09,08,13,19,1.00
2020,09,08,13,20,3.90
2020,09,08,13,21,4.40
2020,09,08,13,22,3.30
2020,09,08,13,23,1.40
2020,09,08,13,24,2.50
2020,09,08,13,25,3.30
2020,09,08,13,26,1.40
2020,09,08,13,27,0.30
2020,09,08,13,28,0.50
2020,09,08,13,29,1.30
2020,09,08,13,30,3.30
2020,09,08,13,31,2.10
2020,09,08,13,32,3.20
2020,09,08,13,33,3.20
2020,09,08,13,34,4.40
2020,09,08,13,35,1.80
2020,09,08,13,36,4.70
2020,09,08,13,37,7.50
2020,09,08,13,38,1.40
2020,09,08,13,39,1.00
2020,09,08,13,40,3.00
2020,09,08,13,41,2.60
2020,09,08,13,42,1.90
2020,09,08,13,43,3.60
2020,09,08,13,44,2.20
2020,09,08,13,45,4.30
2020,09,08,13,46,6.50
2020,09,08,13,47,1.20
2020,09,08,13,48,1.40
2020,09,08,13,49,1.60
2020,09,08,13,50,1.40
2020,09,08,13,51,0.90
2020,09,08,13,52,1.00
2020,09,08,13,53,0.60
2020,09,08,13,54,1.40
2020,09,08,13,55,5.00
2020,09,08,13,56,2.20
2020,09,08,13,57,0.40
2020,09,08,13,58,2.10
2020,09,08,13,59,1.00
2020,09,08,14,00,0.70
2020,09,08,14,01,0.80
2020,09,08,14,02,2.20
2020,09,08,14,03,1.40
2020,09,08,14,04,4.00
2020,09,08,14,05,0.10
2020,09,08,14,06,0.40
2020,09,08,14,07,1.50
2020,09,08,14,08,1.50
2020,09,08,14,09,0.50
2020,09,08,14,10,1.80
2020,09,08,14,11,1.80
2020,09,08,14,12,1.90
2020,09,08,14,13,1.90
2020,09,08,14,14,2.80
2020,09,08,14,15,1.10
2020,09,08,14,16,1.40
2020,09,08,14,17,2.10
2020,09,08,14,18,1.40
2020,09,08,14,19,0.30
2020,09,08,14,20,0.60
2020,09,08,14,21,0.60
2020,09,08,14,22,2.40
2020,09,08,14,23,4.70
2020,09,08,14,24,2.70
2020,09,08,14,25,2.20
2020,09,08,14,26,2.30
2020,09,08,14,27,4.70
2020,09,08,14,28,3.80
2020,09,08,14,29,2.90
2020,09,08,14,30,1.30
2020,09,08,14,31,2.40
2020,09,08,14,32,0.60
2020,09,08,14,33,4.80
2020,09,08,14,34,8.00
2020,09,08,14,35,6.00
2020,09,08,14,36,7.00
2020,09,08,14,37,7.30
2020,09,08,14,38,11.00
2020,09,08,14,39,9.70
2020,09,08,14,40,8.50
2020,09,08,14,41,11.20
2020,09,08,14,42,6.50
2020,09,08,14,43,4.20
2020,09,08,14,44,1.00
2020,09,08,14,45,1.50
2020,09,08,14,46,0.90
2020,09,08,14,47,0.70
2020,09,08,14,48,0.10
2020,09,08,14,49,1.20
2020,09,08,14,50,1.10
2020,09,08,14,51,0.40
2020,09,08,14,52,0.20
2020,09,08,14,53,1.20
2020,09,08,14,54,3.90
2020,09,08,14,55,2.40
2020,09,08,14,56,2.80
2020,09,08,14,57,2.20
2020,09,08,14,58,6.90
2020,09,08,14,59,5.70
2020,09,08,15,00,1.00
2020,09,08,15,01,5.70
2020,09,08,15,02,6.90
2020,09,08,15,03,9.80
2020,09,08,15,04,15.70
2020,09,08,15,05,9.70
2020,09,08,15,06,9.80
2020,09,08,15,07,9.80
2020,09,08,15,08,7.10
2020,09,08,15,09,7.80
2020,09,08,15,10,8.20
2020,09,08,15,11,3.50
2020,09,08,15,12,4.20
2020,09,08,15,13,5.80
2020,09,08,15,14,1.40
2020,09,08,15,15,1.40
2020,09,08,15,16,2.30
2020,09,08,15,17,3.10
2020,09,08,15,18,1.50
2020,09,08,15,19,5.30
2020,09,08,15,20,5.00
2020,09,08,15,21,2.60
2020,09,08,15,22,1.00
2020,09,08,15,23,0.70
2020,09,08,15,24,3.00
2020,09,08,15,25,10.00
2020,09,08,15,26,11.80
2020,09,08,15,27,12.10
2020,09,08,15,28,7.60
2020,09,08,15,29,6.40
2020,09,08,15,30,9.60
2020,09,08,15,31,5.10
2020,09,08,15,32,7.40
2020,09,08,15,33,1.80
2020,09,08,15,34,2.80
2020,09,08,15,35,4.10
2020,09,08,15,36,2.40
2020,09,08,15,37,4.30
2020,09,08,15,38,8.00
2020,09,08,15,39,8.30
2020,09,08,15,40,12.50
2020,09,08,15,41,10.70
2020,09,08,15,42,7.50
2020,09,08,15,43,6.70
2020,09,08,15,44,8.00
2020,09,08,15,45,5.40
2020,09,08,15,46,5.00
2020,09,08,15,47,4.90
2020,09,08,15,48,4.30
2020,09,08,15,49,3.80
2020,09,08,15,50,6.50
2020,09,08,15,51,1.90
2020,09,08,15,52,3.60
2020,09,08,15,53,4.60
2020,09,08,15,54,4.70
2020,09,08,15,55,8.30
2020,09,08,15,56,3.00
2020,09,08,15,57,5.70
2020,09,08,15,58,2.00
2020,09,08,15,59,5.20
2020,09,08,16,00,4.40
2020,09,08,16,01,5.90
2020,09,08,16,02,7.50
2020,09,08,16,03,6.50
2020,09,08,16,04,2.40
2020,09,08,16,05,3.00
2020,09,08,16,06,4.20
2020,09,08,16,07,0.10
2020,09,08,16,08,4.00
2020,09,08,16,09,8.40
2020,09,08,16,10,4.40
2020,09,08,16,11,4.10
2020,09,08,16,12,6.20
2020,09,08,16,13,8.00
2020,09,08,16,14,5.10
2020,09,08,16,15,3.70
2020,09,08,16,16,3.50
2020,09,08,16,17,8.40
2020,09,08,16,18,7.00
2020,09,08,16,19,2.80
2020,09,08,16,20,1.80
2020,09,08,16,21,1.10
2020,09,08,16,22,0.60
2020,09,08,16,23,3.60
2020,09,08,16,24,5.90
2020,09,08,16,25,4.10
2020,09,08,16,26,3.50
2020,09,08,16,27,8.00
2020,09,08,16,28,12.30
2020,09,08,16,29,5.80
2020,09,08,16,30,4.60
2020,09,08,16,31,3.00
2020,09,08,16,32,7.50
2020,09,08,16,33,5.20
2020,09,08,16,34,3.60
2020,09,08,16,35,2.60
2020,09,08,16,36,0.30
2020,09,08,16,37,1.70
2020,09,08,16,38,2.60
2020,09,08,16,39,5.90
2020,09,08,16,40,2.60
2020,09,08,16,41,5.10
2020,09,08,16,42,2.00
2020,09,08,16,43,3.60
2020,09,08,16,44,3.10
2020,09,08,16,45,4.10
2020,09,08,16,46,0.70
2020,09,08,16,47,2.70
2020,09,08,16,48,0.40
2020,09,08,16,49,0.50
2020,09,08,16,50,1.60
2020,09,08,16,51,4.90
2020,09,08,16,52,5.60
2020,09,08,16,53,8.00
2020,09,08,16,54,5.50
2020,09,08,16,55,5.90
2020,09,08,16,56,2.70
2020,09,08,16,57,3.80
2020,09,08,16,58,1.70
2020,09,08,16,59,2.50
2020,09,08,17,00,0.50
2020,09,08,17,01,2.50
2020,09,08,17,02,12.10
2020,09,08,17,03,6.50
2020,09,08,17,04,5.30
2020,09,08,17,05,2.60
2020,09,08,17,06,2.50
2020,09,08,17,07,2.30
2020,09,08,17,08,4.90
2020,09,08,17,09,3.60
2020,09,08,17,10,0.50
2020,09,08,17,11,9.80
2020,09,08,17,12,10.20
2020,09,08,17,13,6.80
2020,09,08,17,14,5.20
2020,09,08,17,15,4.20
2020,09,08,17,16,8.30
2020,09,08,17,17,9.10
2020,09,08,17,18,5.10
2020,09,08,17,19,8.40
2020,09,08,17,20,5.30
2020,09,08,17,21,3.20
2020,09,08,17,22,3.60
2020,09,08,17,23,3.30
2020,09,08,17,24,6.90
2020,09,08,17,25,6.40
2020,09,08,17,26,4.90
2020,09,08,17,27,4.70
2020,09,08,17,28,3.50
2020,09,08,17,29,8.00
2020,09,08,17,30,5.30
2020,09,08,17,31,8.00
2020,09,08,17,32,4.70
2020,09,08,17,33,2.50
2020,09,08,17,34,1.60
2020,09,08,17,35,5.70
2020,09,08,17,36,1.70
2020,09,08,17,37,2.00
2020,09,08,17,38,0.30
2020,09,08,17,39,3.60
2020,09,08,17,40,5.00
2020,09,08,17,41,1.00
2020,09,08,17,42,0.90
2020,09,08,17,43,11.30
2020,09,08,17,44,6.00
2020,09,08,17,45,9.00
2020,09,08,17,46,9.50
2020,09,08,17,47,8.90
2020,09,08,17,48,2.50
2020,09,08,17,49,7.30
2020,09,08,17,50,6.10
2020,09,08,17,51,2.90
2020,09,08,17,52,4.60
2020,09,08,17,53,1.70
2020,09,08,17,54,6.70
2020,09,08,17,55,5.00
2020,09,08,17,56,2.90
2020,09,08,17,57,2.50
2020,09,08,17,58,1.10
2020,09,08,17,59,4.00
2020,09,08,18,00,4.20
2020,09,08,18,01,4.60
2020,09,08,18,02,3.50
2020,09,08,18,03,2.80
2020,09,08,18,04,1.10
2020,09,08,18,05,1.10